Regional Weather Roundup
Issued by NWS

Home | Current Version | Previous Version | Graphics & Text | Print | Product List | Glossary On
Versions: 1 2 3 4 5 6 7 8 9 10 11 12 13 14 15 16 17 18 19 20 21 22 23 24 25 26 27 28 29 30 31 32 33 34 35 36 37 38 39 40 41 42 43 44 45 46 47 48 49 50
000
ASUS44 KMEG 071200
RWRTN
TENNESSEE HOURLY STATE WEATHER ROUNDUP
NATIONAL WEATHER SERVICE MEMPHIS TN
700 AM CDT TUE JUL 07 2015

TNZ002-004-019-021-049-052-054-088>092-071300-
WEST TENNESSEE

CITY           SKY/WX    TMP DP  RH WIND       PRES   REMARKS
MEMPHIS INTL   MOSUNNY   78  73  84 SW8       30.04R
NWS MEMPHIS      N/A     76 N/A N/A MISG        N/A
JACKSON        SUNNY     76  72  87 S7        30.05R
DYERSBURG        N/A    N/A N/A N/A MISG        N/A
PARIS          SUNNY     72  70  94 S8        30.03F
LEXINGTON      SUNNY     72  72 100 S3        30.06R
$$

TNZ008-025-027-028-033-062-065-066-071300-
NORTH MIDDLE TENNESSEE

CITY           SKY/WX    TMP DP  RH WIND       PRES   REMARKS
NASHVILLE      PTSUNNY   75  71  87 S9        30.08R
CLARKSVILLE    CLOUDY    74  70  87 S9        30.04R
COOKEVILLE     CLOUDY    75  73  94 SW6       30.11R
CROSSVILLE     CLOUDY    73  69  87 VRB3      30.16S
$$

TNZ061-075-076-078-094-096-097-071300-
SOUTH MIDDLE TENNESSEE

CITY           SKY/WX    TMP DP  RH WIND       PRES   REMARKS
FAYETTEVILLE   SUNNY     72  72 100 S5        30.13R
TULLAHOMA      SUNNY     72  70  94 S6        30.14R
WINCHESTER     MOSUNNY   73  72  94 CALM      30.13S
COLUMBIA       SUNNY     77  75  94 S9        30.08R
SHELBYVILLE    SUNNY     75  73  94 S7          N/A
$$

TNZ017-018-042-046-047-071300-
NORTHEAST TENNESSEE

CITY           SKY/WX    TMP DP  RH WIND       PRES   REMARKS
TRI CITIES     PTSUNNY   66  65  96 CALM      30.19R FOG
ELIZABETHTON   PTSUNNY   64  63  94 CALM      30.20R
$$

TNZ012-013-036-069-073-074-071300-
CENTRAL EAST TENNESSEE

CITY           SKY/WX    TMP DP  RH WIND       PRES   REMARKS
KNOXVILLE      CLOUDY    73  68  84 SW5       30.15R
OAK RIDGE      PTSUNNY   72  69  90 SW3       30.15R
GATLINBURG     CLOUDY    66  63  88 CALM      30.15R
$$

TNZ083-085-099-071300-
SOUTHEAST TENNESSEE

CITY           SKY/WX    TMP DP  RH WIND       PRES   REMARKS
CHATTANOOGA    MOSUNNY   73  70  90 CALM      30.14S
$$

SKY/WX REPORTED AS FAIR MEANS FEW OR NO CLOUDS BELOW
12 THOUSAND FEET.




USA.gov is the U.S. government's official web portal to all federal, state and local government web resources and services.